Date,TemperatureHighF,TemperatureAvgF,TemperatureLowF,DewpointHighF,DewpointAvgF,DewpointLowF,HumidityHigh,HumidityAvg,HumidityLow,PressureMaxIn,PressureMinIn,WindSpeedMaxMPH,WindSpeedAvgMPH,GustSpeedMaxMPH,PrecipitationSumIn
2013-4-1,74.8,65.4,53.1,49.7,35.4,30.6,72,34,23,29.88,29.77,7,3,13,0.54
2013-4-2,66.2,53.8,41.0,32.0,27.5,19.8,65,38,23,30.12,29.85,7,2,13,0.00
2013-4-3,61.5,52.7,42.4,25.4,20.1,13.2,34,28,25,30.24,30.03,6,2,14,0.00
2013-4-4,50.1,43.1,37.1,36.4,28.1,16.1,93,61,29,30.24,29.88,8,3,15,0.95
2013-4-5,67.9,51.0,37.6,45.0,37.5,29.3,94,65,34,29.97,29.80,6,2,13,0.00
2013-4-6,48.2,41.0,37.2,32.3,31.1,30.3,78,68,50,30.12,29.94,1,0,2,0.00
2013-4-8,79.2,69.9,62.2,46.8,44.4,43.2,53,41,31,30.03,29.97,7,3,13,0.00
2013-4-9,86.5,69.3,53.8,55.5,49.5,44.9,82,52,29,30.15,30.00,6,2,13,0.00
2013-4-10,80.0,65.9,57.6,59.1,52.0,48.8,82,63,34,30.06,29.85,6,1,10,0.00
2013-4-11,83.7,71.1,59.9,66.6,57.1,51.6,92,63,38,29.91,29.65,7,3,15,0.17
2013-4-12,84.0,71.0,58.5,67.0,53.8,32.4,100,62,23,29.77,29.50,9,4,17,2.08
2013-4-13,77.3,61.7,45.1,46.3,35.7,26.9,75,42,22,29.97,29.74,5,1,10,0.00
2013-4-14,79.5,61.9,45.0,50.0,39.3,33.3,72,47,24,30.09,29.91,6,1,11,0.00
2013-4-15,69.7,62.1,57.7,60.5,56.1,48.5,94,81,64,30.18,29.91,6,2,8,0.04
2013-4-16,81.4,67.2,57.7,61.7,56.1,51.1,96,71,37,30.30,30.15,5,1,10,0.00
2013-4-17,83.5,69.4,57.2,61.6,55.0,49.8,92,64,34,30.24,30.06,6,1,10,0.00
2013-4-18,82.8,70.9,62.4,62.7,57.4,52.5,89,65,36,30.15,29.91,7,2,17,0.00
2013-4-19,69.3,64.6,56.8,65.8,59.2,51.9,93,83,69,29.94,29.62,8,4,17,0.20
2013-4-20,66.6,54.5,43.3,52.3,33.3,27.7,86,47,26,30.27,29.83,7,2,12,0.00
2013-4-21,66.1,57.8,43.5,37.3,34.6,31.8,69,43,34,30.47,30.24,6,2,12,0.00
2013-4-22,65.9,53.8,43.5,35.6,30.5,25.5,66,43,25,30.42,30.15,7,3,13,0.00
2013-4-23,71.5,59.0,48.9,47.2,40.6,31.8,72,51,39,30.27,30.06,5,2,10,0.00
2013-4-24,74.9,62.2,49.3,54.8,50.3,45.5,94,68,42,30.15,29.94,8,2,14,0.00
2013-4-25,63.5,58.7,53.4,55.1,46.9,33.4,84,66,46,30.24,30.00,7,2,13,0.00
2013-4-26,61.2,60.3,59.4,43.2,41.5,39.7,55,50,45,30.36,30.30,0,0,0,0.00
2013-4-27,66.0,59.5,56.3,54.3,49.3,43.0,91,70,55,30.36,30.21,3,0,4,0.00
2013-4-28,58.6,57.0,56.1,57.3,55.7,54.3,100,95,91,30.24,30.00,4,1,9,2.03
2013-4-29,74.7,63.1,56.7,62.7,58.4,56.4,100,86,55,30.03,29.88,3,0,6,0.21
2013-4-30,73.8,63.7,56.7,62.8,57.7,53.7,100,82,56,30.15,29.91,5,2,8,0.00